Pella, IA

3:19 AM CST on December 16, 2017 (GMT -0600)
Pella Municipal

Weather History for KPEA - September, 2013

Change the Weather History Date:

Monday, September 16, 2013

  Actual Average (KOXV) Record (KOXV)
Temperature  
Mean Temperature 55 °F -  
Max Temperature 61 °F 73 °F 93 °F (1955)
Min Temperature 49 °F 53 °F 38 °F (1966)
Degree Days  
Heating Degree Days 10    
Growing Degree Days 5 (Base 50)    
Moisture  
Dew Point 51 °F    
Average Humidity 89    
Maximum Humidity 99    
Minimum Humidity 68    
Precipitation  
Precipitation 0.00 in - - ()
Sea Level Pressure  
Sea Level Pressure 30.31 in    
Wind  
Wind Speed 3 mph (East)    
Max Wind Speed 10 mph    
Max Gust Speed 16 mph    
Visibility 9 miles    
Events      
Averages and records for this station are not official NWS values.
T = Trace of Precipitation, MM = Missing Value Source: NWS Daily Summary

Daily Weather History Graph

Daily Weather History Graph

Search for Another Location

Airport or City:

Trip Planner

Search our weather history database for the weather conditions in past years. The results will help you decide how hot, cold, wet, or windy it might be!

Date:

Astronomy

Sep. 16, 2013 Rise Set
Actual Time 6:53 AM CDT 7:18 PM CDT
Civil Twilight 6:25 AM CDT 7:46 PM CDT
Nautical Twilight 5:52 AM CDT 8:19 PM CDT
Astronomical Twilight 5:19 AM CDT 8:52 PM CDT
Moon 5:29 PM CDT 3:38 AM CDT
Length of Visible Light 13h 20m
Length of Day
12h 25m
Waxing Gibbous, 90% of the Moon is Illuminated
Sep 16
Waxing Gibbous
Sep 19
Full
Sep 26
Last Quarter
Oct 4
New
Oct 11
First Quarter

Hourly Weather History & Observations

Time (CDT) Temp. Dew Point Humidity Pressure Visibility Wind Dir Wind Speed Gust Speed Precip Events Conditions
12:15 AM 51.4 °F 50.4 °F 96% 30.25 in 10.0 mi Calm Calm - N/A   Clear
12:35 AM 51.8 °F 50.9 °F 97% 30.25 in 10.0 mi Calm Calm - N/A   Clear
12:55 AM 51.8 °F 50.9 °F 97% 30.26 in 10.0 mi Calm Calm - N/A   Clear
1:15 AM 51.1 °F 50.2 °F 97% 30.26 in 10.0 mi Calm Calm - N/A   Clear
1:35 AM 50.9 °F 50.0 °F 97% 30.26 in 10.0 mi Calm Calm - N/A   Clear
1:55 AM 50.5 °F 50.0 °F 98% 30.26 in 10.0 mi Calm Calm - N/A   Clear
2:15 AM 49.5 °F 48.7 °F 97% 30.26 in 10.0 mi Calm Calm - N/A   Clear
2:35 AM 49.3 °F 48.7 °F 98% 30.26 in 7.0 mi Calm Calm - N/A   Clear
2:55 AM 49.5 °F 49.1 °F 99% 30.26 in 7.0 mi Calm Calm - N/A   Clear
3:15 AM 49.6 °F 49.1 °F 98% 30.27 in 7.0 mi Calm Calm - N/A   Clear
3:35 AM 50.0 °F 49.5 °F 98% 30.27 in 7.0 mi Calm Calm - N/A   Clear
3:55 AM 50.0 °F 49.5 °F 98% 30.28 in 7.0 mi Calm Calm - N/A   Clear
4:15 AM 50.2 °F 49.6 °F 98% 30.28 in 7.0 mi NNE 3.5 mph - N/A   Clear
4:35 AM 50.0 °F 49.6 °F 99% 30.28 in 7.0 mi NNE 3.5 mph - N/A   Clear
4:55 AM 49.6 °F 49.3 °F 99% 30.29 in 7.0 mi NE 3.5 mph - N/A   Clear
5:15 AM 50.0 °F 49.5 °F 98% 30.29 in 7.0 mi NE 3.5 mph - N/A   Clear
5:35 AM 50.0 °F 49.6 °F 99% 30.29 in 7.0 mi NE 5.8 mph - N/A   Clear
5:55 AM 50.0 °F 49.6 °F 99% 30.29 in 7.0 mi NE 5.8 mph - N/A   Clear
6:15 AM 50.2 °F 49.8 °F 99% 30.30 in 10.0 mi NE 3.5 mph - N/A   Clear
6:35 AM 50.5 °F 50.2 °F 99% 30.31 in 10.0 mi ENE 4.6 mph - N/A   Clear
6:55 AM 50.9 °F 50.4 °F 98% 30.31 in 10.0 mi ENE 3.5 mph - N/A   Clear
7:15 AM 51.1 °F 50.9 °F 99% 30.32 in 7.0 mi NE 5.8 mph - N/A   Clear
7:35 AM 52.0 °F 51.6 °F 99% 30.33 in 7.0 mi ENE 6.9 mph - N/A   Clear
7:55 AM 52.7 °F 52.2 °F 98% 30.34 in 7.0 mi East 8.1 mph - N/A   Scattered Clouds
8:15 AM 52.7 °F 52.2 °F 98% 30.33 in 7.0 mi East 10.4 mph - N/A   Mostly Cloudy
8:35 AM 52.9 °F 52.2 °F 97% 30.34 in 7.0 mi East 6.9 mph - N/A   Overcast
8:55 AM 53.6 °F 52.7 °F 97% 30.34 in 7.0 mi East 9.2 mph - N/A   Overcast
9:15 AM 54.0 °F 52.7 °F 95% 30.35 in 10.0 mi East 5.8 mph 16.1 mph N/A   Overcast
9:35 AM 54.5 °F 52.7 °F 94% 30.36 in 10.0 mi East 5.8 mph - N/A   Overcast
9:55 AM 54.5 °F 52.5 °F 93% 30.37 in 10.0 mi East 4.6 mph - N/A   Overcast
10:15 AM 54.5 °F 52.2 °F 92% 30.38 in 10.0 mi East 9.2 mph - N/A   Overcast
10:35 AM 54.9 °F 52.5 °F 92% 30.38 in 10.0 mi East 6.9 mph - N/A   Overcast
10:55 AM 55.4 °F 52.7 °F 91% 30.38 in 10.0 mi East 5.8 mph - N/A   Overcast
11:15 AM 56.1 °F 53.2 °F 90% 30.38 in 10.0 mi ESE 6.9 mph - N/A   Overcast
11:35 AM 56.3 °F 52.9 °F 88% 30.38 in 10.0 mi ESE 5.8 mph - N/A   Overcast
11:55 AM 56.3 °F 52.7 °F 88% 30.38 in 10.0 mi ESE 4.6 mph - N/A   Overcast
12:15 PM 57.4 °F 52.7 °F 84% 30.38 in 10.0 mi East 6.9 mph - N/A   Overcast
12:35 PM 58.1 °F 52.2 °F 81% 30.38 in 10.0 mi East 4.6 mph - N/A   Overcast
12:55 PM 59.0 °F 51.8 °F 77% 30.38 in 10.0 mi East 4.6 mph - N/A   Overcast
1:15 PM 59.4 °F 52.0 °F 77% 30.38 in 10.0 mi ESE 9.2 mph - N/A   Overcast
1:35 PM 59.4 °F 52.0 °F 77% 30.37 in 10.0 mi SE 4.6 mph - N/A   Overcast
1:55 PM 59.0 °F 52.0 °F 78% 30.36 in 10.0 mi SE 4.6 mph - N/A   Overcast
2:15 PM 59.2 °F 52.0 °F 77% 30.35 in 10.0 mi Calm Calm - N/A   Overcast
2:35 PM 59.4 °F 51.8 °F 76% 30.35 in 10.0 mi ESE 3.5 mph - N/A   Overcast
2:55 PM 59.9 °F 52.0 °F 75% 30.34 in 10.0 mi ESE 5.8 mph - N/A   Overcast
3:15 PM 61.0 °F 52.0 °F 72% 30.33 in 10.0 mi East 3.5 mph - N/A   Overcast
3:35 PM 61.0 °F 51.8 °F 72% 30.32 in 10.0 mi ENE 3.5 mph - N/A   Overcast
3:55 PM 60.8 °F 51.8 °F 72% 30.31 in 10.0 mi East 3.5 mph - N/A   Overcast
4:15 PM 60.8 °F 51.1 °F 70% 30.31 in 10.0 mi Calm Calm - N/A   Overcast
4:35 PM 60.4 °F 51.4 °F 72% 30.31 in 10.0 mi East 8.1 mph - N/A   Mostly Cloudy
4:55 PM 61.0 °F 51.1 °F 70% 30.30 in 10.0 mi East 6.9 mph - N/A   Mostly Cloudy
5:15 PM 61.7 °F 50.9 °F 68% 30.30 in 10.0 mi ESE 8.1 mph - N/A   Mostly Cloudy
5:35 PM 61.3 °F 50.5 °F 68% 30.29 in 10.0 mi ESE 5.8 mph - N/A   Overcast
5:55 PM 61.0 °F 50.9 °F 69% 30.29 in 10.0 mi ESE 5.8 mph - N/A   Overcast
6:15 PM 60.4 °F 51.4 °F 72% 30.29 in 10.0 mi ESE 5.8 mph - N/A   Overcast
6:35 PM 60.1 °F 51.4 °F 73% 30.28 in 10.0 mi Calm Calm - N/A   Overcast
6:55 PM 59.0 °F 51.4 °F 76% 30.27 in 10.0 mi Calm Calm - N/A   Scattered Clouds
7:15 PM 57.7 °F 51.3 °F 79% 30.27 in 10.0 mi Calm Calm - N/A   Clear
7:35 PM 56.8 °F 51.3 °F 82% 30.27 in 7.0 mi Calm Calm - N/A   Clear
7:55 PM 56.1 °F 51.3 °F 84% 30.26 in 10.0 mi Calm Calm - N/A   Clear
8:15 PM 54.5 °F 51.8 °F 91% 30.26 in 10.0 mi Calm Calm - N/A   Clear
8:35 PM 54.5 °F 51.8 °F 91% 30.26 in 10.0 mi Calm Calm - N/A   Clear
8:55 PM 54.5 °F 51.8 °F 91% 30.26 in 10.0 mi Calm Calm - N/A   Clear
9:15 PM 54.1 °F 51.6 °F 91% 30.27 in 10.0 mi Calm Calm - N/A   Clear
9:35 PM 52.7 °F 50.4 °F 92% 30.27 in 10.0 mi Calm Calm - N/A   Clear
9:55 PM 51.8 °F 50.2 °F 94% 30.27 in 7.0 mi Calm Calm - N/A   Clear
10:15 PM 51.8 °F 50.4 °F 95% 30.27 in 7.0 mi Calm Calm - N/A   Scattered Clouds
10:35 PM 52.7 °F 51.1 °F 94% 30.27 in 10.0 mi Calm Calm - N/A   Scattered Clouds
10:55 PM 52.9 °F 50.9 °F 93% 30.28 in 10.0 mi Calm Calm - N/A   Clear
11:15 PM 51.6 °F 49.5 °F 92% 30.28 in 10.0 mi Calm Calm - N/A   Clear
11:35 PM 50.9 °F 49.6 °F 95% 30.28 in 7.0 mi Calm Calm - N/A   Clear
11:55 PM 52.3 °F 51.1 °F 95% 30.28 in 10.0 mi Calm Calm - N/A   Clear